Hourly Weather Bolshie Saltyki

Today, 1 August, Sunday

Time Temperature Precipitation Wind Pressure Humidity
00:00 +20°C° 0 mm 4 mps 747 mmHg 74%
01:00 +20°C° 0 mm 4 mps 747 mmHg 74%
02:00 +19°C° 0 mm 4 mps 748 mmHg 74%
03:00 +19°C° 0 mm 4 mps 748 mmHg 74%
04:00 +20°C° 0 mm 4 mps 748 mmHg 72%
05:00 +21°C° 0 mm 3 mps 749 mmHg 70%
06:00 +21°C° 0 mm 3 mps 749 mmHg 67%
07:00 +24°C° 0 mm 3 mps 749 mmHg 61%
08:00 +25°C° 0 mm 3 mps 749 mmHg 54%
09:00 +27°C° 0 mm 3 mps 750 mmHg 47%
10:00 +28°C° 0 mm 4 mps 750 mmHg 44%
11:00 +28°C° 0 mm 4 mps 750 mmHg 41%
12:00 +29°C° 0 mm 4 mps 750 mmHg 38%
13:00 +29°C° 0 mm 4 mps 750 mmHg 37%
14:00 +29°C° 0 mm 4 mps 750 mmHg 37%
15:00 +29°C° 0 mm 5 mps 750 mmHg 36%
16:00 +29°C° 0 mm 4 mps 750 mmHg 40%
17:00 +28°C° 0 mm 3 mps 750 mmHg 44%
18:00 +27°C° 0 mm 3 mps 750 mmHg 48%
19:00 +26°C° 0 mm 2 mps 751 mmHg 51%
20:00 +24°C° 0 mm 1 mps 751 mmHg 54%
21:00 +23°C° 0 mm 1 mps 751 mmHg 58%
22:00 +22°C° 0 mm 1 mps 751 mmHg 59%
23:00 +22°C° 0 mm 1 mps 751 mmHg 61%

Tomorrow, 2 August, Monday

Time Temperature Precipitation Wind Pressure Humidity
00:00 +21°C° 0 mm 1 mps 751 mmHg 63%
01:00 +21°C° 0 mm 1 mps 751 mmHg 64%
02:00 +20°C° 0 mm 1 mps 751 mmHg 64%
03:00 +20°C° 0 mm 1 mps 751 mmHg 65%
04:00 +21°C° 0 mm 1 mps 751 mmHg 64%
05:00 +21°C° 0 mm 2 mps 752 mmHg 63%
06:00 +21°C° 0 mm 2 mps 752 mmHg 62%
07:00 +24°C° 0 mm 2 mps 752 mmHg 57%
08:00 +26°C° 0 mm 2 mps 752 mmHg 53%
09:00 +28°C° 0 mm 3 mps 752 mmHg 48%
10:00 +29°C° 0 mm 3 mps 752 mmHg 44%
11:00 +30°C° 0 mm 3 mps 752 mmHg 41%
12:00 +33°C° 0 mm 3 mps 751 mmHg 37%
13:00 +33°C° 0 mm 3 mps 751 mmHg 36%
14:00 +34°C° 0 mm 3 mps 751 mmHg 35%
15:00 +34°C° 0 mm 3 mps 751 mmHg 33%
16:00 +33°C° 0 mm 3 mps 750 mmHg 37%
17:00 +31°C° 0 mm 3 mps 750 mmHg 41%
18:00 +30°C° 0 mm 3 mps 750 mmHg 44%
19:00 +29°C° 0 mm 3 mps 750 mmHg 44%
20:00 +27°C° 0 mm 3 mps 750 mmHg 44%
21:00 +26°C° 0 mm 3 mps 750 mmHg 44%
22:00 +25°C° 0 mm 3 mps 750 mmHg 47%
23:00 +25°C° 0 mm 3 mps 749 mmHg 50%

Day after tomorrow, 3 August, Tuesday

Time Temperature Precipitation Wind Pressure Humidity
00:00 +24°C° 0 mm 3 mps 749 mmHg 53%
01:00 +24°C° 0 mm 3 mps 749 mmHg 55%
02:00 +22°C° 0 mm 3 mps 749 mmHg 57%
03:00 +22°C° 0 mm 3 mps 749 mmHg 59%
04:00 +24°C° 0 mm 3 mps 749 mmHg 58%
05:00 +25°C° 0 mm 3 mps 749 mmHg 56%
06:00 +25°C° 0 mm 3 mps 749 mmHg 55%
07:00 +27°C° 0 mm 4 mps 748 mmHg 49%
08:00 +29°C° 0 mm 5 mps 748 mmHg 44%
09:00 +32°C° 0 mm 5 mps 748 mmHg 38%
10:00 +34°C° 0 mm 5 mps 748 mmHg 35%
11:00 +35°C° 0 mm 5 mps 748 mmHg 32%
12:00 +36°C° 0 mm 5 mps 748 mmHg 29%
13:00 +37°C° 0 mm 5 mps 747 mmHg 27%
14:00 +37°C° 0 mm 5 mps 747 mmHg 26%
15:00 +39°C° 0 mm 5 mps 747 mmHg 25%
16:00 +36°C° 0 mm 6 mps 747 mmHg 31%
17:00 +34°C° 0 mm 7 mps 747 mmHg 36%
18:00 +33°C° 0 mm 8 mps 747 mmHg 42%
19:00 +29°C° 0.2 mm 6 mps 747 mmHg 50%
20:00 +27°C° 0.2 mm 5 mps 748 mmHg 59%
21:00 +25°C° 0.2 mm 4 mps 748 mmHg 67%
22:00 +24°C° 0 mm 3 mps 748 mmHg 68%
23:00 +24°C° 0 mm 3 mps 748 mmHg 69%

4 August, Wednesday

Time Temperature Precipitation Wind Pressure Humidity
00:00 +23°C° 0 mm 2 mps 748 mmHg 70%
01:00 +22°C° 0.2 mm 3 mps 748 mmHg 74%
02:00 +21°C° 0.2 mm 3 mps 748 mmHg 78%
03:00 +21°C° 0.2 mm 4 mps 749 mmHg 83%
04:00 +21°C° 0 mm 3 mps 749 mmHg 84%
05:00 +21°C° 0 mm 3 mps 749 mmHg 86%
06:00 +21°C° 0 mm 2 mps 749 mmHg 87%
07:00 +21°C° 0 mm 2 mps 749 mmHg 86%
08:00 +22°C° 0 mm 3 mps 749 mmHg 85%
09:00 +22°C° 0 mm 3 mps 749 mmHg 84%
10:00 +24°C° 0 mm 3 mps 749 mmHg 78%
11:00 +25°C° 0 mm 2 mps 750 mmHg 72%
12:00 +25°C° 0 mm 2 mps 750 mmHg 66%
13:00 +26°C° 0.2 mm 2 mps 750 mmHg 66%
14:00 +26°C° 0.2 mm 2 mps 750 mmHg 66%
15:00 +26°C° 0.2 mm 2 mps 750 mmHg 66%
16:00 +25°C° 0.3 mm 3 mps 750 mmHg 67%
17:00 +25°C° 0.3 mm 3 mps 750 mmHg 68%
18:00 +25°C° 0.3 mm 4 mps 750 mmHg 69%
19:00 +22°C° 0 mm 4 mps 750 mmHg 75%
20:00 +21°C° 0 mm 3 mps 751 mmHg 80%
21:00 +19°C° 0 mm 3 mps 751 mmHg 85%
22:00 +19°C° 0 mm 3 mps 751 mmHg 84%
23:00 +19°C° 0 mm 3 mps 751 mmHg 84%

5 August, Thursday

Time Temperature Precipitation Wind Pressure Humidity
00:00 +18°C° 0 mm 3 mps 752 mmHg 83%
01:00 +18°C° 0 mm 3 mps 752 mmHg 83%
02:00 +17°C° 0 mm 3 mps 752 mmHg 83%
03:00 +17°C° 0 mm 3 mps 752 mmHg 83%
04:00 +17°C° 0 mm 3 mps 752 mmHg 80%
05:00 +18°C° 0 mm 3 mps 752 mmHg 77%
06:00 +18°C° 0 mm 3 mps 753 mmHg 74%
07:00 +20°C° 0 mm 3 mps 753 mmHg 66%
08:00 +22°C° 0 mm 4 mps 753 mmHg 57%
09:00 +25°C° 0 mm 4 mps 753 mmHg 48%
10:00 +25°C° 0 mm 4 mps 753 mmHg 45%
11:00 +26°C° 0 mm 5 mps 753 mmHg 43%
12:00 +27°C° 0 mm 5 mps 753 mmHg 40%
13:00 +27°C° 0 mm 5 mps 753 mmHg 39%
14:00 +27°C° 0 mm 5 mps 753 mmHg 39%
15:00 +27°C° 0 mm 5 mps 753 mmHg 38%
16:00 +26°C° 0 mm 5 mps 753 mmHg 40%
17:00 +25°C° 0 mm 4 mps 753 mmHg 42%
18:00 +25°C° 0 mm 4 mps 753 mmHg 44%
19:00 +22°C° 0 mm 4 mps 753 mmHg 48%
20:00 +20°C° 0 mm 4 mps 753 mmHg 52%
21:00 +18°C° 0 mm 3 mps 754 mmHg 57%
22:00 +17°C° 0 mm 3 mps 754 mmHg 58%
23:00 +17°C° 0 mm 3 mps 754 mmHg 60%

6 August, Friday

Time Temperature Precipitation Wind Pressure Humidity
00:00 +16°C° 0 mm 3 mps 754 mmHg 62%
01:00 +14°C° 0 mm 3 mps 754 mmHg 61%
02:00 +14°C° 0 mm 3 mps 754 mmHg 60%
03:00 +13°C° 0 mm 3 mps 754 mmHg 59%
04:00 +14°C° 0 mm 3 mps 754 mmHg 57%
05:00 +16°C° 0 mm 3 mps 755 mmHg 55%
06:00 +16°C° 0 mm 3 mps 755 mmHg 53%
07:00 +18°C° 0 mm 3 mps 755 mmHg 48%
08:00 +20°C° 0 mm 4 mps 755 mmHg 43%
09:00 +22°C° 0 mm 4 mps 755 mmHg 38%
10:00 +23°C° 0 mm 4 mps 755 mmHg 37%
11:00 +24°C° 0 mm 3 mps 755 mmHg 36%
12:00 +25°C° 0 mm 3 mps 755 mmHg 34%
13:00 +26°C° 0 mm 3 mps 755 mmHg 34%
14:00 +26°C° 0 mm 2 mps 755 mmHg 33%
15:00 +26°C° 0 mm 2 mps 755 mmHg 33%
16:00 +26°C° 0 mm 2 mps 755 mmHg 36%
17:00 +25°C° 0 mm 1 mps 755 mmHg 40%
18:00 +25°C° 0 mm 1 mps 755 mmHg 43%
19:00 +23°C° 0 mm 1 mps 755 mmHg 47%
20:00 +21°C° 0 mm 1 mps 755 mmHg 50%
21:00 +19°C° 0 mm 1 mps 755 mmHg 54%
22:00 +19°C° 0 mm 1 mps 755 mmHg 56%
23:00 +18°C° 0 mm 2 mps 755 mmHg 58%
Show more

We Need Your Consent

Meteoprog and our Service Providers may store and access personal data such as cookies, device identifiers or other similar technologies on your device and process such data to personalise content and ads, as well as provide social media features and to analyse the traffic.

  • Store and/or access information on your device

    Cookies, device identifiers or other information can be stored or accessed on your device for the purposes indicated above.

  • Personalised ads and content, ad and content measurement, audience insights, and products development

    Ads and content can be personalised based on a profile. More data can be added to better personalise ads and content. Ad and content performance can be measured. Insights about the audience who saw the ads and content can be derived. Such data can be used to develop or improve user’s experience, systems and software.

By clicking ‘I Agree’ you will allow the use of indicated cookies, device identifiers, web beacons or other similar technologies. Your settings can be changed in the browser on your device.

For certain purposes, legitimate interests may be relied on, rather than consent. You can read more about this in our Privacy and Cookie Policy.